Wind_Speed
16 7 6 12 14 15 14 12 9 5 8 9 7 6 8 7 6 7 6 8 12 9 8 10 10 12 14 11 14 23 22 19 22 22 24 26 27 27 26 27 28 31 34 31 28 27 28 29 29 30 31 31 31 31 30 31 31 32 33 33 33 32 32 32 34 37 38 37 36 35 34 34 33 32 31 31 31 30 29 28 28 28 27 27 27 26
14 9 13 18 14 12 11 10 9 7 6 8 7 6 8 8 7 8 7 7 10 7 6 9 10 12 14 10 13 20 17 17 24 24 25 28 29 29 29 29 30 31 32 30 30 29 28 29 30 30 31 32 33 33 32 33 33 33 34 34 34 33 34 35 35 37 39 40 39 38 37 35 34 34 34 33 33 32 31 30 31 31 30 30 30 29
9 11 19 18 11 9 9 8 9 9 7 5 5 5 6 6 5 6 4 3 6 5 4 7 8 11 12 10 11 15 15 20 27 28 29 32 31 33 34 34 34 33 33 33 32 31 29 30 30 31 33 34 34 34 33 33 33 34 35 35 36 35 36 36 36 37 39 39 39 38 37 35 34 34 34 34 33 32 32 33 33 33 33 33 33 31
10 16 20 17 11 10 10 10 10 8 7 5 4 5 4 4 5 5 3 2 3 4 3 3 5 6 8 9 9 16 23 24 26 28 31 34 34 36 38 37 37 36 36 35 34 32 31 31 31 33 34 34 35 36 36 36 35 35 36 36 37 36 36 36 37 38 38 38 39 39 37 36 35 34 33 33 34 34 35 35 36 36 36 35 35 33
13 10 15 16 13 14 13 13 12 8 7 7 6 5 4 5 6 3 1 1 2 3 1 1 5 5 7 10 11 15 20 21 25 27 28 33 36 38 38 38 39 38 38 38 37 36 34 34 34 35 34 34 35 36 37 37 36 36 36 36 37 37 36 36 36 37 38 38 40 41 40 39 39 38 37 37 38 38 38 39 39 39 38 37 36 35
13 10 20 18 14 15 13 12 14 12 7 8 10 9 6 5 4 1 1 2 1 4 2 2 4 6 5 10 11 9 8 12 21 22 24 31 34 34 36 37 39 39 39 39 39 38 37 37 37 37 36 36 36 36 36 36 37 36 36 36 36 36 36 35 36 36 37 39 41 43 44 44 44 44 44 43 42 41 41 41 41 41 40 39 38 37
6 13 20 17 13 16 13 11 15 14 8 8 10 10 7 5 5 3 3 3 3 4 3 2 5 7 4 5 8 6 4 8 12 13 21 31 32 33 37 38 38 39 40 40 40 39 40 39 39 40 40 40 40 37 34 35 36 37 36 37 37 36 36 35 36 36 37 39 41 43 45 45 45 46 46 45 43 42 41 40 41 41 41 41 40 39
9 16 17 16 17 15 13 13 15 16 11 7 8 11 9 7 6 4 3 4 3 2 4 2 2 5 6 5 7 8 8 10 11 10 15 24 31 34 38 39 40 41 41 42 42 41 41 41 41 42 42 42 42 39 36 35 36 37 38 38 37 37 37 36 36 37 37 39 40 42 44 45 46 46 46 44 43 42 41 41 41 41 42 41 41 40
16 19 18 20 18 12 14 13 14 17 11 4 9 11 8 5 3 0 1 3 1 1 4 4 2 2 7 5 4 7 9 10 14 14 13 20 28 32 35 39 41 42 43 43 44 43 42 43 43 43 42 41 41 41 40 38 36 36 37 38 38 38 38 38 38 38 38 38 39 41 43 45 45 46 46 46 45 44 43 42 41 41 42 42 42 41
11 20 22 20 14 11 13 9 12 16 9 4 10 9 6 6 4 3 2 2 1 1 7 6 5 3 7 4 3 3 5 8 12 12 13 21 29 29 31 37 39 40 41 41 43 43 43 43 43 43 42 42 41 40 41 40 39 37 36 37 38 38 38 38 39 39 39 39 40 41 42 43 44 44 45 46 46 46 45 44 42 42 42 42 42 42
5 20 20 13 13 13 12 10 13 16 10 11 9 8 6 5 4 3 1 3 1 6 8 8 10 5 6 4 5 4 5 8 10 9 10 17 25 29 32 35 37 38 39 39 40 40 40 40 40 42 42 42 42 40 41 41 42 41 39 38 38 37 37 38 39 40 40 40 41 41 41 42 42 43 44 45 46 46 46 45 44 43 42 42 43 42
3 13 11 11 20 17 11 12 13 14 15 12 5 5 5 2 2 2 2 1 5 9 5 8 11 8 8 6 3 5 6 7 9 8 7 11 19 26 28 31 35 35 36 38 39 38 38 37 38 40 42 43 42 41 42 42 42 43 42 41 39 37 36 37 39 40 41 41 42 42 41 42 41 42 44 45 45 46 46 46 45 44 44 44 44 44
4 9 9 11 20 19 13 10 7 9 12 9 6 8 6 3 3 4 4 3 7 5 1 6 8 6 10 8 5 8 9 8 9 11 13 13 14 16 17 20 26 29 30 31 33 35 36 36 37 38 40 41 42 42 42 42 42 43 43 42 41 38 36 37 38 39 41 42 42 41 41 42 42 43 44 45 45 45 45 46 45 45 45 45 45 45
5 7 11 9 10 19 18 10 7 6 10 12 10 11 10 6 5 8 7 3 4 3 1 4 5 3 7 5 9 13 13 17 18 18 20 18 16 18 17 14 16 20 22 23 24 28 30 31 31 32 34 36 39 40 42 42 43 43 43 43 42 39 36 37 38 38 40 41 41 41 42 42 42 43 44 44 45 44 45 45 46 46 45 45 45 45
7 5 13 13 9 19 20 16 16 12 12 14 11 11 11 7 6 7 6 5 4 2 2 2 2 4 5 3 8 12 17 25 25 24 26 25 25 26 24 19 16 15 16 17 20 23 24 26 26 27 28 30 33 36 39 41 43 44 44 43 43 40 38 38 39 39 40 40 39 41 42 42 43 43 43 43 44 44 45 45 45 45 45 45 45 44
6 5 8 10 8 18 20 16 18 14 9 8 6 8 10 6 4 3 3 5 4 2 2 3 3 5 5 6 8 7 10 17 23 28 30 30 26 21 21 23 24 23 21 20 21 22 23 23 24 26 26 26 27 29 33 37 40 43 44 44 42 40 38 38 39 40 40 39 39 41 41 42 42 42 43 43 43 44 44 45 45 45 45 45 44 43
4 3 4 4 5 17 19 15 17 15 9 6 6 8 5 4 5 4 1 1 4 2 4 4 5 5 2 8 10 10 10 10 15 19 19 21 21 16 18 21 24 25 25 23 23 23 22 22 23 24 25 24 24 24 27 31 35 39 42 42 41 39 38 39 40 39 39 38 39 41 41 41 42 42 43 43 43 43 44 44 44 44 44 44 44 43
2 1 3 3 5 12 13 15 17 9 5 7 10 10 5 3 2 4 2 1 3 4 4 4 9 6 1 6 6 8 13 12 12 9 7 12 17 17 19 21 20 20 19 19 19 20 19 20 20 21 22 22 21 20 21 24 30 35 37 39 39 38 37 37 38 37 37 37 39 40 41 41 42 42 43 42 43 43 44 45 44 44 45 44 44 43
3 1 4 2 5 5 4 10 10 2 3 4 8 11 7 3 3 4 4 4 4 7 5 4 8 6 6 8 3 5 12 13 12 10 7 9 15 19 22 22 22 20 19 18 17 17 17 16 16 16 17 18 19 19 19 20 25 30 33 35 35 34 32 32 34 34 34 35 36 37 39 40 41 42 43 42 43 44 45 45 45 45 45 44 44 44
3 1 3 2 2 3 3 6 9 5 4 1 6 8 5 3 5 6 4 3 5 7 6 4 4 5 7 8 6 7 11 10 10 11 9 12 19 24 24 24 23 21 19 18 16 15 14 13 13 13 14 16 18 20 21 22 24 27 28 30 30 29 29 29 31 31 32 32 32 34 35 38 40 41 42 42 43 44 45 45 45 45 45 44 44 44
3 2 2 2 3 4 5 6 11 13 8 5 9 10 7 3 2 3 4 3 4 4 4 5 6 7 5 5 9 12 12 11 12 12 9 13 20 24 23 21 20 19 18 16 14 13 12 12 12 12 12 13 15 17 20 23 25 26 28 28 29 29 29 30 30 30 31 31 31 33 33 35 37 40 41 42 43 43 44 44 44 44 44 44 44 44
4 2 2 2 3 5 5 4 7 11 11 9 9 11 10 7 5 4 6 3 2 3 4 4 7 8 5 5 8 11 10 11 14 12 8 12 17 18 18 17 16 16 16 14 13 13 12 13 14 14 14 14 15 16 18 20 22 25 27 29 31 32 32 32 32 31 32 32 33 34 33 34 36 38 39 40 41 42 42 42 43 42 43 43 43 43
5 3 2 2 3 3 2 3 2 4 9 7 4 6 8 6 6 8 8 5 3 4 3 3 6 7 4 6 7 9 9 12 16 15 11 14 16 13 13 14 13 13 14 13 13 13 14 15 15 15 16 16 18 18 18 19 19 21 23 26 29 32 33 32 32 32 33 33 34 34 34 34 35 36 38 38 39 40 40 40 40 39 40 40 40 41
5 3 3 1 2 3 5 4 3 2 3 4 2 3 7 8 8 8 5 4 5 6 5 4 7 9 5 6 6 7 9 11 15 16 15 15 15 14 13 13 13 13 13 13 13 13 14 14 14 15 15 16 18 19 19 20 20 20 20 22 25 28 30 29 29 29 31 32 33 33 33 34 34 35 36 36 37 37 37 37 36 36 37 37 38 39
7 3 4 2 1 1 3 2 2 1 3 6 5 6 9 11 11 5 3 3 5 11 11 7 9 10 4 3 5 6 8 7 8 13 17 16 15 13 11 12 12 13 13 13 13 12 12 12 12 13 14 16 18 19 20 20 20 20 20 21 22 24 26 26 26 26 26 27 28 29 29 29 30 31 32 32 33 34 34 34 34 34 35 35 37 37
9 4 5 5 6 7 6 6 6 5 6 6 8 12 13 16 17 11 6 6 8 11 11 8 11 10 2 1 5 6 7 7 6 8 11 11 11 11 12 12 13 14 14 14 13 12 11 10 10 11 12 14 15 16 17 17 17 17 18 18 18 19 20 22 22 22 22 22 22 22 23 24 25 26 27 28 30 30 31 32 32 33 34 34 35 36
4 3 8 9 9 8 5 3 2 5 8 9 12 17 17 17 18 13 6 8 10 8 8 8 12 15 12 9 8 6 6 7 6 6 10 13 13 12 14 15 16 16 15 15 14 12 11 9 8 8 8 8 9 9 9 9 9 10 10 10 10 10 12 13 15 17 17 18 18 18 19 19 20 22 23 24 26 27 29 30 31 32 32 33 34 35
3 4 12 12 14 10 2 1 3 7 12 16 19 21 19 16 15 13 12 13 12 8 9 10 12 17 21 18 12 9 8 7 7 9 12 13 13 14 16 18 19 18 17 18 17 14 11 9 7 5 4 3 3 3 3 2 2 2 2 4 4 5 6 8 10 12 13 14 15 15 16 16 17 18 19 21 22 24 26 28 30 31 32 32 33 34
3 6 12 13 17 14 5 4 4 9 12 16 18 20 20 18 18 18 18 17 13 11 12 14 16 18 23 24 18 12 10 9 10 12 12 13 15 18 20 21 22 22 21 23 22 18 14 12 9 6 4 3 3 4 5 5 4 3 2 1 2 3 5 6 8 10 11 13 13 13 14 15 16 17 18 19 21 22 24 26 28 31 33 34 34 34
4 5 9 12 15 15 10 7 5 8 12 13 15 18 19 20 21 21 20 18 16 13 14 17 20 20 24 25 14 11 17 20 18 17 17 18 20 21 22 25 25 25 26 27 26 23 20 16 12 9 7 6 5 4 3 1 1 2 2 1 1 2 4 6 8 9 10 11 12 13 14 15 15 16 17 18 19 20 21 23 25 27 29 29 30 31
6 5 7 10 9 11 13 10 7 7 10 13 16 17 18 18 19 19 18 17 16 15 19 23 21 19 24 21 8 10 20 23 20 20 22 23 25 25 26 29 30 30 29 29 28 27 24 21 18 15 12 9 8 8 8 7 6 5 4 3 3 3 5 6 7 9 10 10 11 12 12 13 14 14 15 16 17 18 19 20 21 23 24 25 26 26
5 4 5 7 5 8 14 15 12 10 9 12 14 15 17 17 18 19 20 20 19 20 23 22 18 18 19 13 8 12 15 13 13 18 21 24 27 30 31 33 34 33 31 31 31 30 28 26 24 21 16 11 10 10 11 11 10 10 9 7 5 5 6 7 8 9 11 11 12 12 12 12 12 13 13 14 15 16 17 17 18 19 20 22 23 24
4 3 3 5 6 9 12 16 17 10 6 9 13 18 22 22 21 21 20 21 21 19 17 15 17 21 14 5 9 13 11 10 13 18 22 25 28 31 33 35 36 35 34 34 33 32 31 31 28 24 19 15 13 12 12 13 13 13 13 11 10 8 7 8 9 10 11 11 12 12 12 12 12 12 13 14 14 15 16 17 17 18 18 19 19 20
4 4 2 3 5 7 9 14 13 9 8 11 14 21 25 24 24 22 20 22 21 18 17 17 21 25 14 6 9 11 11 16 21 26 30 33 33 34 37 39 39 39 39 38 35 33 34 34 30 25 20 18 17 16 15 16 16 15 15 15 14 12 11 10 10 11 11 12 13 13 12 12 12 12 12 13 14 14 15 16 17 17 18 19 19 21
2 2 2 2 2 3 6 10 9 9 11 8 6 15 22 22 23 23 22 25 24 23 24 24 26 25 15 11 14 14 16 23 26 30 35 35 35 37 40 43 43 42 42 40 37 34 34 34 30 24 22 21 21 20 19 18 17 16 17 17 16 16 14 13 12 12 12 13 13 13 12 12 13 13 12 12 13 13 14 15 16 17 17 18 19 20
3 2 1 2 2 1 3 7 7 5 4 1 6 13 16 15 16 17 19 24 25 25 25 24 27 26 17 20 27 22 18 20 23 30 37 36 36 38 38 40 43 44 43 39 37 35 35 34 31 26 24 25 24 24 22 19 17 16 17 18 18 18 17 16 15 14 13 13 13 12 13 13 13 14 13 13 13 13 13 14 14 15 16 17 18 20
5 3 1 2 3 3 2 5 5 2 2 2 6 10 15 18 20 19 18 22 23 21 19 21 28 29 22 26 31 22 12 12 16 28 37 38 39 39 38 39 41 41 41 38 37 37 35 34 30 27 27 27 25 25 21 18 16 15 16 19 20 20 20 19 19 17 15 13 13 13 14 14 15 14 14 14 13 12 13 13 13 13 13 14 16 18
7 6 4 2 3 3 2 4 4 2 4 8 8 11 20 25 22 17 13 15 13 17 23 26 29 29 24 24 23 13 6 8 14 22 28 34 38 38 38 41 43 42 42 40 39 38 35 32 31 30 31 30 27 25 21 19 19 18 18 19 20 22 23 22 22 21 18 15 14 14 15 16 16 15 15 14 13 12 12 12 11 11 11 11 12 13
7 5 6 4 4 3 3 5 4 3 6 7 7 12 18 17 12 10 6 14 13 19 29 30 29 29 24 19 16 12 7 11 18 16 17 26 35 40 42 44 44 43 44 43 41 40 38 36 36 34 34 32 29 26 24 24 24 22 20 20 21 23 25 25 24 23 19 17 16 16 17 17 17 16 15 13 12 12 11 10 10 10 11 11 11 11
5 3 4 6 7 7 6 6 4 3 5 6 6 9 14 21 20 13 7 17 15 19 30 30 28 30 27 20 16 12 10 19 20 10 13 23 33 41 46 48 47 47 49 48 46 45 43 41 39 36 35 33 31 28 29 31 29 24 22 22 24 25 27 27 24 21 19 18 18 18 19 18 17 16 15 14 14 13 12 12 11 11 11 12 11 12
4 4 5 7 8 9 8 8 6 4 6 8 6 8 21 26 17 10 14 13 5 17 32 35 31 31 29 23 19 16 25 39 35 18 15 24 32 38 42 43 45 46 46 45 45 45 44 43 39 36 34 33 31 31 33 33 30 26 25 25 27 27 27 26 22 19 18 17 18 19 20 19 18 17 16 16 16 15 14 13 13 12 11 12 12 12
3 4 4 7 7 7 7 8 6 5 9 11 9 14 23 19 8 13 17 8 2 16 31 37 36 35 32 30 31 33 44 54 51 38 30 28 32 39 40 38 39 39 36 35 37 39 42 42 39 35 33 32 32 33 32 31 30 28 28 29 29 28 26 24 21 19 18 16 18 20 20 19 18 17 17 16 15 14 14 13 13 13 12 13 13 13
6 5 4 6 6 5 5 7 6 7 10 13 14 11 13 12 11 14 12 7 5 9 20 28 34 36 34 35 39 46 51 51 50 49 44 37 36 40 38 35 36 34 32 31 32 35 38 38 36 35 33 31 30 30 30 30 31 30 31 31 29 26 25 24 22 21 19 17 18 20 20 19 18 17 15 14 12 11 11 11 12 12 12 13 14 14
6 5 3 4 5 5 5 6 7 8 6 13 17 9 12 16 13 12 13 11 8 7 12 20 29 33 34 37 41 45 48 49 50 52 48 44 45 46 40 34 32 31 31 30 31 33 35 34 33 33 32 30 29 30 31 31 32 32 32 30 27 26 26 25 24 23 21 19 19 20 20 19 17 15 13 12 11 10 10 10 11 12 13 14 15 16
8 9 7 6 6 6 6 6 10 11 10 13 18 15 16 25 24 19 21 24 22 20 19 21 25 28 30 35 40 43 44 47 52 52 47 46 50 50 46 39 33 31 31 30 30 32 32 30 30 30 31 31 31 31 31 31 30 29 29 27 26 26 26 25 25 24 22 21 20 19 18 17 16 14 13 12 11 11 10 10 10 11 12 13 14 16
10 12 10 5 3 4 6 7 9 12 17 27 33 23 15 25 34 33 29 27 27 28 29 28 28 28 28 32 38 43 45 46 48 47 44 43 44 45 44 41 35 32 31 31 32 33 31 30 30 30 30 31 31 31 30 29 27 26 25 25 25 25 25 25 24 22 21 19 18 16 15 15 14 12 11 11 10 10 9 9 9 9 10 10 12 13
6 11 10 6 5 6 7 7 11 18 26 35 36 26 19 25 33 36 37 35 28 23 25 29 29 29 31 35 39 43 45 45 43 41 38 37 38 40 40 38 36 35 34 33 34 34 32 31 31 31 31 31 29 29 28 27 26 26 25 25 25 25 24 23 21 19 18 17 15 15 14 13 12 11 10 9 9 8 8 8 7 7 8 8 9 10
6 10 9 8 9 10 9 11 18 28 37 38 33 27 28 34 38 37 37 37 33 25 22 25 28 31 35 41 44 44 43 41 40 38 35 35 36 37 37 38 38 37 36 36 36 35 33 32 31 31 30 29 28 27 26 26 26 26 26 26 25 24 22 20 19 18 17 16 16 15 14 13 12 11 10 10 9 8 8 7 7 7 7 7 8 9
9 10 7 7 10 11 12 13 15 18 23 30 38 42 40 37 35 34 31 30 31 32 31 31 33 38 42 43 42 41 37 35 36 35 34 35 36 36 36 37 37 38 38 38 36 34 32 31 30 30 29 27 26 25 25 25 25 25 25 24 24 22 21 20 20 20 19 18 17 16 15 14 13 12 11 10 9 9 8 7 6 6 5 5 6 6
8 7 6 6 10 10 9 13 17 12 12 22 35 41 39 34 33 35 34 31 31 35 36 36 37 40 41 39 35 33 30 29 29 30 31 34 35 36 38 38 38 38 37 36 34 32 31 30 29 29 28 26 25 24 24 24 24 24 23 23 22 22 22 22 23 23 22 20 19 18 16 15 14 12 11 10 9 8 7 6 6 5 4 3 3 4
12 11 10 10 12 12 15 26 31 20 15 27 32 25 22 28 34 39 42 42 40 37 37 38 37 36 35 31 27 26 26 25 24 26 28 29 30 32 34 35 35 35 34 33 32 32 31 30 30 29 28 27 25 24 23 23 23 23 23 23 23 24 24 25 24 24 23 21 20 19 17 15 14 12 11 10 9 8 7 6 6 6 5 4 4 3
Wind_Direction
167 158 195 204 204 197 194 193 191 155 146 163 167 181 199 212 232 221 230 219 185 188 215 207 214 234 240 241 242 246 244 237 237 237 236 237 238 239 237 238 237 233 235 238 239 240 240 239 237 235 235 235 234 235 234 232 231 230 229 230 230 230 230 229 226 224 224 224 224 224 225 226 225 224 223 223 225 227 231 235 238 241 241 241 240 239
172 191 213 211 203 190 191 187 185 191 169 166 179 189 202 211 225 229 238 221 191 194 226 217 220 236 242 242 240 241 239 234 234 234 238 240 239 238 235 235 236 236 236 236 236 238 237 236 234 234 234 233 233 233 233 233 232 232 232 232 232 231 230 229 227 225 226 227 228 229 230 230 230 229 228 228 228 230 232 235 239 242 244 245 245 244
180 215 216 204 184 170 185 189 186 201 205 194 185 185 208 204 204 236 263 234 195 199 236 226 226 240 248 249 243 238 234 235 235 233 235 238 237 235 233 234 235 236 235 232 232 234 233 233 233 232 233 233 233 234 234 234 233 232 234 235 235 233 232 230 229 227 227 229 231 233 235 236 236 236 236 236 235 235 236 238 240 243 246 247 248 248
195 221 209 184 167 170 181 193 191 197 211 213 184 178 203 174 175 226 272 280 224 206 201 223 245 253 262 266 258 244 240 243 245 241 240 239 238 237 237 236 236 236 235 233 231 232 232 231 230 230 231 232 233 233 234 233 233 233 235 237 236 235 234 232 230 229 229 230 232 234 237 239 240 242 242 241 240 239 240 241 243 244 246 248 250 251
211 212 176 169 177 179 181 189 190 193 210 217 203 187 182 173 186 221 244 201 266 276 230 39 299 270 236 244 253 248 243 246 248 245 244 242 240 242 242 240 239 238 238 236 233 231 231 231 231 231 232 232 233 233 233 233 234 235 236 238 238 238 237 236 234 232 231 229 230 232 234 235 237 238 239 239 238 238 238 240 242 244 246 248 250 251
218 157 154 178 187 178 182 188 191 193 197 216 215 197 172 176 193 147 115 164 193 278 263 113 273 271 222 227 245 252 239 242 247 244 243 244 242 242 241 240 239 238 239 239 238 235 233 233 234 234 233 233 234 235 236 236 236 238 239 238 239 240 240 240 239 237 234 231 230 230 231 232 233 234 235 237 237 236 236 238 240 243 246 248 250 251
210 162 167 183 178 175 187 194 194 189 188 217 208 183 170 175 183 165 180 205 194 245 269 150 220 268 290 243 245 259 259 251 253 248 244 246 245 243 242 241 240 238 238 239 240 239 236 235 234 235 235 235 236 237 238 239 238 238 239 239 239 241 242 242 242 240 237 235 233 232 233 234 236 237 240 241 241 241 241 241 242 244 246 248 250 252
171 179 178 177 176 181 192 198 194 183 192 216 166 158 180 184 190 198 191 221 225 240 298 294 197 271 283 252 234 240 254 261 260 254 246 244 244 244 243 242 241 240 239 238 239 238 237 237 236 236 237 237 239 239 237 238 239 239 238 239 240 240 242 242 242 242 241 239 237 235 235 236 239 242 246 247 247 247 246 245 245 246 247 249 251 252
174 183 178 176 182 188 196 197 180 177 199 211 139 153 179 160 168 289 103 212 243 95 259 253 136 279 271 249 230 231 237 251 254 251 247 242 242 242 243 243 242 242 241 239 239 239 239 239 239 239 239 241 242 241 239 238 239 241 240 239 239 240 241 242 242 242 243 243 241 240 239 239 241 244 246 248 249 250 249 248 248 248 249 250 251 252
181 188 182 177 181 193 198 179 161 180 199 144 123 123 107 83 81 72 100 150 58 261 238 210 165 235 265 227 179 215 223 234 246 248 246 247 246 243 242 243 243 243 242 241 242 243 243 243 243 243 242 242 244 243 243 241 239 239 239 238 238 240 242 243 242 243 243 244 243 243 243 243 245 245 245 246 246 248 248 249 249 249 249 250 251 252
197 190 183 179 190 191 180 161 168 179 152 108 100 96 90 60 48 53 64 94 82 256 235 189 172 201 265 237 179 198 210 215 230 241 245 250 251 249 247 245 245 243 242 241 242 244 246 247 247 245 244 244 245 245 244 243 240 238 237 237 239 241 243 243 243 242 243 244 243 244 245 246 247 247 245 245 246 247 248 249 249 250 250 251 252 253
224 181 173 188 194 180 157 168 176 161 135 116 103 120 121 72 44 27 356 94 224 247 231 174 162 172 235 248 201 233 248 225 221 229 239 243 247 250 250 249 249 247 245 243 242 244 245 247 246 244 244 244 244 244 243 243 242 240 238 237 239 241 242 243 243 243 243 243 244 245 246 246 247 247 246 246 248 249 250 251 252 251 251 252 253 253
224 187 172 183 188 172 157 169 164 146 146 141 137 148 157 176 176 196 207 201 223 244 253 154 146 175 236 250 255 263 277 263 234 227 233 238 246 257 260 255 253 251 251 247 244 244 245 246 247 246 246 246 245 244 244 244 243 243 242 239 239 240 241 241 242 242 243 244 245 247 248 247 247 246 246 248 249 250 251 253 253 253 253 254 254 255
203 203 180 168 177 175 171 168 164 166 170 170 166 172 182 177 181 199 199 213 228 231 219 130 122 238 265 270 243 240 248 250 246 241 242 248 261 275 278 271 260 251 251 249 245 245 245 246 248 249 250 249 248 248 247 246 244 244 245 242 240 240 241 241 242 243 243 244 247 249 250 250 248 247 247 248 249 250 251 252 253 255 256 257 258 259
184 211 185 172 172 178 180 183 180 168 173 186 179 182 195 186 190 198 187 206 216 205 227 143 127 211 217 255 240 229 239 247 254 262 265 270 273 273 269 261 256 249 245 245 244 243 244 245 248 250 252 252 253 253 251 249 247 245 245 245 243 242 241 241 241 242 243 245 247 249 250 251 251 250 250 250 251 251 252 252 253 255 256 258 260 261
207 253 192 179 170 174 183 189 174 157 170 193 166 181 206 191 172 175 175 193 164 121 221 204 232 218 204 268 275 258 256 254 259 263 265 269 270 266 255 248 251 254 254 253 250 247 245 246 247 248 249 249 252 254 252 250 248 245 245 245 246 246 245 244 243 243 245 247 248 249 251 252 253 253 252 252 252 252 252 253 254 256 257 258 260 261
224 267 188 174 161 177 184 178 168 167 170 175 172 186 191 138 134 130 171 136 104 189 227 188 248 281 301 280 263 242 249 253 251 250 249 256 261 256 247 246 248 252 257 259 257 254 250 248 248 248 248 248 250 253 252 250 248 246 245 245 248 249 249 247 245 245 246 248 249 249 251 253 254 254 255 255 255 254 253 253 254 256 257 258 259 260
204 266 218 184 168 185 186 170 173 183 164 167 186 179 134 76 88 100 148 73 90 231 247 192 229 249 251 264 251 217 229 239 247 247 232 244 254 254 252 251 249 250 258 262 256 251 249 249 251 250 248 246 247 250 252 251 249 247 245 246 248 251 251 251 250 250 250 250 250 251 252 253 254 255 256 257 257 255 254 254 255 256 256 257 258 259
153 253 274 225 175 184 168 162 173 256 289 202 175 163 147 157 189 156 181 192 181 222 252 226 226 227 210 228 237 200 217 227 245 255 247 237 239 244 250 253 257 258 261 260 254 251 252 253 252 248 243 241 240 243 244 245 245 244 244 245 247 250 252 253 254 253 252 252 252 253 254 254 254 255 256 257 257 255 255 255 256 256 257 258 258 258
150 198 270 282 217 172 146 176 180 189 256 276 134 158 179 182 183 182 175 165 181 211 242 243 222 232 225 209 188 211 219 216 233 242 234 229 230 234 242 251 258 261 258 255 252 251 251 249 246 244 242 241 239 240 239 237 237 238 240 242 244 246 247 247 249 249 250 251 251 252 253 253 253 253 254 255 255 255 256 257 258 258 258 259 258 258
157 207 241 311 299 196 178 195 189 180 182 171 161 174 192 180 146 174 180 151 139 172 226 250 245 253 249 195 184 210 220 218 230 239 230 225 229 234 239 247 253 253 249 247 243 242 243 246 250 251 251 250 248 246 243 240 239 239 239 241 243 245 246 247 249 250 251 251 250 250 251 251 252 251 252 252 253 254 256 257 257 258 259 258 258 258
168 187 192 258 260 204 188 204 200 187 178 178 180 179 182 168 133 168 202 187 126 163 186 215 259 262 239 194 193 205 214 217 225 231 223 223 231 235 234 236 241 238 233 232 234 239 247 254 259 260 258 258 257 255 251 247 246 245 244 244 244 245 246 246 246 246 247 247 246 247 248 249 250 250 250 251 251 253 254 255 256 256 257 257 257 257
135 120 152 228 251 241 267 297 303 201 190 199 207 179 175 160 146 176 203 194 176 219 207 191 269 270 216 184 193 200 212 221 223 221 219 223 225 220 215 217 220 219 218 225 236 247 257 261 263 262 258 256 255 255 255 252 250 249 248 248 247 245 244 244 244 242 242 242 243 244 244 245 246 248 249 249 250 252 253 254 255 255 255 255 256 256
104 113 167 204 296 319 323 308 336 5 188 209 284 177 173 179 181 183 187 172 175 209 213 214 259 264 230 189 185 180 195 211 218 215 209 205 198 192 197 203 206 212 221 231 240 248 254 257 260 261 259 255 252 252 253 252 250 249 249 250 249 246 244 243 245 246 245 245 244 244 245 245 245 246 248 249 250 252 253 254 255 255 255 255 254 253
161 164 164 152 179 314 332 288 265 326 188 193 202 194 185 187 188 175 139 151 195 209 201 201 243 249 229 182 190 172 169 176 186 187 181 177 177 185 200 207 209 216 224 229 234 238 242 247 252 255 255 254 252 250 250 251 249 246 245 247 249 247 245 243 245 249 251 252 251 250 250 250 250 250 250 252 253 254 255 255 255 255 254 254 253 252
173 167 166 179 188 193 204 208 202 191 188 193 193 194 193 189 188 187 183 190 207 210 197 201 237 244 242 243 231 209 186 190 202 187 176 182 198 210 221 226 221 217 218 221 223 225 230 238 245 249 252 254 253 252 251 250 248 245 245 248 250 250 247 246 247 250 254 255 255 254 253 252 252 252 252 253 253 254 254 253 253 253 252 252 251 250
144 169 184 204 215 208 206 224 197 144 167 182 187 195 200 196 193 189 189 204 209 211 204 211 236 249 254 244 228 225 218 212 227 225 205 208 217 223 233 239 233 224 221 220 218 217 220 226 235 242 247 250 251 250 247 245 243 243 246 249 250 247 244 243 244 246 249 250 250 249 249 249 249 249 248 248 249 249 250 249 249 249 249 250 250 250
81 197 194 209 224 227 266 268 173 153 182 192 190 196 199 194 191 190 203 211 203 208 226 220 223 245 253 244 222 220 229 224 227 225 216 218 226 232 238 238 232 225 225 228 225 218 215 214 211 204 198 200 198 192 180 163 174 193 206 221 224 227 230 231 235 237 239 242 244 245 246 246 247 248 247 247 246 246 247 247 247 246 245 246 249 251
99 207 197 202 221 227 252 276 198 172 197 205 197 198 197 190 190 196 211 214 200 208 231 225 219 234 249 248 232 212 210 218 227 230 235 242 243 239 235 229 224 223 229 236 235 227 220 212 201 187 173 166 149 135 123 107 95 93 104 159 209 213 222 228 231 235 238 241 244 246 248 248 249 250 250 249 248 247 246 246 245 244 242 241 242 246
137 207 192 193 220 226 226 258 250 194 203 209 207 205 197 194 197 201 212 216 212 220 235 236 235 236 244 249 238 198 207 219 227 233 237 239 240 239 233 224 221 225 232 238 238 236 229 216 209 211 209 211 213 204 191 161 74 36 32 13 304 242 238 238 238 240 241 243 245 246 248 250 250 252 252 252 252 251 249 247 245 243 241 238 239 241
173 193 174 180 221 229 214 229 256 233 212 205 208 207 199 197 202 206 214 218 216 222 231 237 241 242 248 251 228 187 207 213 219 228 231 233 235 235 229 221 220 227 234 238 238 238 233 222 221 228 229 230 231 231 245 257 268 292 312 321 307 279 268 263 257 256 254 252 251 250 252 253 254 255 255 255 255 254 253 250 247 243 238 235 235 237
190 185 158 166 212 227 206 206 222 234 230 217 212 205 197 197 201 207 213 213 209 214 224 233 240 247 254 248 206 204 207 198 203 213 220 229 231 228 223 219 221 228 235 239 238 238 236 229 227 234 238 237 232 234 247 257 261 270 281 290 292 285 280 275 269 267 265 264 264 263 263 263 262 261 261 260 259 258 257 254 251 246 240 236 235 236
167 161 161 166 206 228 205 194 203 212 222 223 211 199 196 199 203 208 214 217 213 211 217 226 232 238 241 192 190 216 212 202 209 208 216 229 231 229 227 225 227 233 238 241 239 239 240 234 231 237 242 240 240 247 255 258 261 266 268 270 274 275 279 279 273 269 267 267 269 269 268 268 267 265 263 262 263 262 260 258 255 251 246 239 236 236
148 168 194 168 213 235 192 180 195 203 211 221 208 197 197 198 200 206 214 218 215 213 219 226 233 237 232 184 199 214 209 218 224 223 228 234 234 233 232 230 231 236 241 242 239 241 245 240 237 242 245 243 247 255 258 257 258 259 256 256 260 264 270 274 272 269 265 263 264 266 268 270 269 267 264 262 262 261 260 259 256 252 247 240 234 233
137 181 198 170 237 253 163 168 197 214 222 230 187 185 197 200 200 207 218 219 213 213 221 229 238 241 236 231 233 224 219 227 231 232 235 235 234 233 232 231 232 235 240 240 236 239 245 242 240 242 245 249 256 256 254 252 250 248 248 248 249 251 256 262 267 268 263 260 261 263 265 268 269 268 265 262 259 258 258 257 255 251 247 242 235 230
149 159 222 205 225 244 169 183 207 228 236 179 141 170 187 200 203 208 227 230 218 213 218 228 240 243 236 237 239 233 233 243 246 243 238 233 232 233 230 231 232 233 236 237 236 241 244 241 239 242 250 257 258 252 246 244 240 237 238 239 239 241 245 250 258 263 262 257 257 259 260 262 265 266 265 262 259 258 257 257 255 252 247 242 236 229
156 156 232 251 216 222 225 213 227 322 18 187 189 173 175 193 199 196 219 232 219 210 215 226 239 241 234 236 239 236 247 269 264 251 240 231 230 231 229 231 233 236 240 243 245 247 243 239 239 247 259 261 253 245 242 239 238 236 233 233 234 235 237 240 247 254 256 253 249 251 253 255 259 262 260 260 259 257 257 255 251 247 242 238 235 230
173 177 182 208 231 227 227 233 240 253 220 215 212 191 191 200 199 189 216 241 218 201 210 222 236 239 234 237 237 226 233 268 267 255 236 225 227 230 231 234 236 240 245 248 249 245 239 238 245 254 261 257 246 240 241 245 251 249 240 234 231 232 234 235 239 244 247 245 241 242 247 250 254 256 255 256 256 254 255 254 250 245 236 230 230 228
173 174 170 190 249 254 250 256 238 227 248 236 204 201 202 191 155 131 210 247 225 198 206 218 231 236 234 229 213 184 179 241 255 247 211 209 223 228 230 233 235 238 243 245 246 245 243 245 252 255 254 248 240 238 244 254 259 252 241 233 229 231 233 233 234 238 239 238 234 234 240 243 247 250 249 249 249 245 243 241 237 234 228 223 223 221
165 162 171 196 232 244 250 266 258 242 266 253 222 209 177 151 130 119 205 244 233 200 204 215 227 233 233 222 199 180 199 231 244 239 191 209 230 233 233 236 237 239 242 243 244 247 249 250 252 249 244 238 236 240 249 257 256 247 237 231 228 230 232 232 234 238 240 240 236 233 236 238 242 245 243 241 238 233 228 223 218 218 218 217 217 219
177 189 192 200 222 229 231 249 264 262 252 245 240 188 153 143 139 170 213 236 202 174 198 215 227 232 229 217 202 206 226 232 237 242 219 221 235 238 237 239 242 243 245 246 247 248 248 248 246 242 238 238 241 247 252 252 247 237 232 230 229 230 231 232 236 241 244 246 243 239 238 237 239 242 240 238 236 230 225 219 213 213 214 214 216 219
170 185 192 199 217 223 221 236 254 267 250 227 199 171 159 153 173 208 213 244 102 168 194 209 220 227 225 217 214 222 233 236 238 241 235 228 237 243 240 239 240 240 240 241 242 243 243 242 240 238 239 242 245 246 243 239 234 229 228 231 232 231 230 231 235 239 241 243 244 243 241 238 239 240 240 241 240 238 236 231 225 225 223 222 223 223
176 178 188 192 200 203 214 221 224 252 241 193 165 163 173 184 212 216 223 294 313 201 198 205 216 223 222 221 223 227 235 239 240 241 238 233 239 245 243 237 235 234 230 228 229 232 234 234 234 235 237 237 236 233 229 226 226 226 227 231 232 228 226 228 231 234 235 236 240 243 242 239 237 238 240 243 245 247 247 243 238 237 233 230 230 229
182 179 187 189 186 190 210 210 211 253 246 168 165 194 206 200 215 231 234 249 258 219 201 211 221 224 223 227 230 231 234 239 241 242 240 235 236 240 239 237 234 229 224 221 222 223 222 221 223 226 227 227 226 225 225 225 226 227 229 230 229 225 224 225 228 231 231 232 236 239 238 234 233 233 235 237 240 240 238 234 232 232 231 230 231 232
192 186 198 214 205 197 210 213 216 244 257 218 216 228 208 202 216 232 232 232 235 233 227 228 233 233 232 235 236 235 236 238 239 241 239 235 236 237 237 238 235 227 222 218 215 214 214 215 220 222 223 225 225 225 226 228 230 231 232 230 227 224 223 224 226 228 228 228 230 231 229 227 226 227 228 229 232 232 231 229 228 227 228 229 231 233
202 198 204 216 224 227 241 245 239 248 254 246 244 247 229 216 221 228 235 239 239 239 240 240 241 242 243 243 241 241 241 241 240 241 239 237 238 238 236 235 230 221 218 215 211 211 214 219 221 222 224 227 227 227 228 229 231 233 232 228 224 222 221 223 224 226 225 224 221 219 218 216 215 215 216 218 222 224 224 226 229 228 228 230 232 235
225 212 213 205 200 217 227 231 235 240 243 246 247 246 243 239 235 234 240 247 249 250 247 244 245 248 248 247 246 247 248 246 243 242 238 235 235 236 233 229 223 218 217 217 217 217 219 221 221 221 223 226 227 227 227 227 228 228 225 222 219 217 218 220 221 220 216 211 206 202 197 194 193 194 196 199 201 204 207 213 221 226 229 232 236 240
213 203 210 212 210 220 227 221 227 236 242 248 252 246 237 239 241 242 245 250 254 259 260 256 257 260 257 253 252 254 256 252 246 242 236 231 230 231 229 226 223 220 220 221 221 221 221 222 222 222 223 224 225 225 224 222 223 221 217 215 212 211 211 210 207 203 198 191 186 180 174 170 171 173 176 179 182 185 190 197 205 214 222 228 235 241
206 190 188 205 218 229 240 237 237 248 254 252 250 247 239 234 236 242 251 257 256 255 257 259 259 262 263 260 258 258 258 253 247 241 235 229 227 228 228 228 227 224 223 222 221 220 221 222 221 221 221 220 220 219 217 216 215 212 210 209 205 201 197 193 190 186 180 175 171 166 162 162 163 165 168 171 173 174 178 184 191 201 215 226 234 244
212 206 188 205 225 227 233 236 233 239 254 249 247 249 244 233 230 238 248 255 254 249 249 252 254 257 260 258 253 251 250 247 243 239 234 232 231 231 231 231 230 227 224 222 220 219 219 220 219 218 216 214 212 212 210 209 207 204 201 198 194 189 184 183 181 177 172 169 166 162 161 161 161 164 167 169 171 173 174 176 178 182 195 209 224 241
215 221 211 217 234 230 227 233 231 225 239 250 252 256 250 235 231 235 240 246 249 248 247 246 247 253 256 250 243 241 240 238 236 233 231 231 231 231 232 231 228 225 221 218 217 216 214 214 213 212 211 210 210 208 206 205 203 198 192 188 184 181 179 179 177 173 169 167 164 161 161 162 164 169 172 173 177 178 176 176 177 178 186 194 205 226
Height
1523 1530 1531 1525 1521 1521 1522 1525 1528 1530 1532 1537 1542 1545 1545 1546 1544 1538 1535 1533 1532 1538 1539 1538 1539 1536 1533 1533 1531 1532 1533 1532 1532 1531 1530 1530 1530 1530 1530 1529 1529 1527 1527 1529 1531 1531 1532 1533 1534 1535 1537 1538 1539 1540 1541 1541 1541 1541 1542 1544 1545 1547 1548 1550 1551 1552 1554 1554 1555 1556 1556 1557 1559 1561 1562 1564 1564 1565 1566 1567 1567 1568 1569 1570 1571 1572
1524 1527 1521 1514 1515 1520 1524 1526 1528 1530 1531 1535 1539 1542 1543 1544 1542 1536 1533 1532 1531 1535 1536 1535 1537 1535 1531 1530 1529 1529 1530 1529 1527 1527 1527 1526 1526 1526 1526 1525 1524 1523 1524 1525 1526 1527 1529 1530 1531 1532 1533 1535 1535 1536 1537 1537 1538 1539 1540 1540 1541 1543 1544 1545 1546 1548 1549 1550 1551 1553 1554 1555 1557 1558 1559 1560 1562 1563 1564 1565 1565 1565 1566 1567 1567 1569
1527 1520 1509 1510 1517 1522 1525 1526 1528 1530 1532 1535 1537 1540 1543 1540 1539 1537 1533 1532 1532 1534 1535 1534 1536 1534 1528 1527 1527 1527 1526 1523 1522 1523 1522 1522 1522 1521 1520 1520 1520 1520 1521 1521 1522 1523 1525 1526 1527 1528 1529 1530 1531 1532 1533 1534 1536 1537 1537 1538 1539 1540 1541 1542 1543 1545 1545 1547 1549 1551 1552 1554 1556 1556 1558 1559 1560 1562 1562 1562 1562 1562 1563 1563 1564 1566
1520 1507 1502 1512 1519 1520 1525 1526 1528 1531 1533 1534 1536 1540 1541 1537 1538 1540 1536 1534 1533 1533 1534 1534 1535 1533 1529 1526 1524 1522 1521 1519 1519 1519 1518 1518 1517 1515 1515 1515 1516 1516 1517 1518 1519 1520 1521 1522 1523 1524 1524 1525 1527 1528 1529 1531 1532 1533 1533 1534 1535 1537 1538 1539 1540 1541 1543 1545 1547 1549 1550 1552 1553 1554 1556 1557 1558 1559 1559 1559 1559 1559 1560 1561 1561 1563
1506 1499 1503 1513 1516 1517 1523 1525 1528 1532 1534 1534 1534 1537 1538 1534 1535 1537 1536 1535 1535 1534 1532 1535 1538 1532 1527 1526 1520 1516 1517 1517 1516 1515 1514 1513 1512 1511 1512 1512 1512 1513 1514 1514 1515 1516 1517 1518 1518 1519 1520 1522 1523 1523 1525 1526 1528 1529 1529 1530 1532 1534 1535 1537 1538 1539 1541 1543 1544 1546 1547 1548 1549 1550 1551 1551 1551 1552 1553 1554 1554 1555 1556 1558 1559 1560
1502 1501 1505 1510 1513 1515 1520 1523 1524 1527 1533 1534 1530 1531 1533 1533 1534 1536 1537 1538 1543 1542 1534 1537 1543 1529 1519 1522 1517 1512 1515 1514 1512 1511 1510 1508 1508 1509 1508 1507 1508 1509 1510 1510 1510 1512 1513 1513 1514 1515 1516 1518 1518 1518 1520 1522 1523 1524 1526 1527 1529 1530 1532 1533 1535 1537 1539 1540 1541 1542 1542 1542 1542 1543 1542 1542 1543 1545 1547 1548 1550 1551 1553 1554 1555 1556
1502 1503 1503 1507 1512 1515 1519 1521 1519 1521 1531 1533 1525 1525 1530 1531 1534 1538 1539 1541 1546 1546 1536 1536 1541 1530 1519 1517 1513 1512 1513 1511 1509 1508 1506 1504 1504 1504 1503 1502 1504 1504 1505 1506 1507 1508 1509 1509 1510 1510 1511 1512 1512 1514 1516 1518 1519 1521 1522 1524 1525 1526 1527 1529 1531 1533 1535 1535 1536 1537 1537 1538 1538 1537 1536 1537 1540 1542 1544 1546 1547 1548 1548 1549 1550 1551
1495 1500 1502 1505 1509 1513 1515 1514 1512 1516 1526 1526 1519 1523 1529 1531 1535 1538 1540 1543 1543 1543 1540 1536 1538 1536 1526 1514 1509 1510 1510 1509 1507 1505 1502 1501 1499 1498 1498 1498 1499 1499 1500 1501 1502 1503 1504 1505 1505 1505 1506 1507 1508 1511 1513 1514 1515 1517 1518 1519 1521 1522 1523 1525 1527 1528 1530 1531 1532 1533 1534 1535 1535 1534 1534 1536 1539 1540 1541 1543 1543 1544 1545 1545 1546 1547
1484 1491 1495 1498 1504 1508 1505 1504 1507 1513 1520 1521 1518 1523 1528 1532 1536 1538 1540 1543 1542 1544 1543 1537 1538 1539 1525 1511 1507 1508 1509 1508 1503 1499 1497 1495 1494 1493 1493 1493 1493 1494 1495 1496 1498 1498 1500 1500 1500 1501 1502 1504 1506 1508 1509 1510 1512 1513 1514 1516 1517 1518 1519 1521 1523 1524 1525 1527 1528 1530 1530 1531 1531 1532 1533 1535 1536 1537 1538 1539 1540 1541 1541 1542 1543 1543
1482 1485 1488 1493 1499 1501 1500 1503 1507 1511 1517 1519 1519 1524 1529 1534 1537 1540 1543 1542 1543 1546 1540 1534 1538 1537 1520 1506 1506 1509 1510 1507 1499 1494 1492 1489 1488 1489 1489 1489 1488 1490 1491 1493 1494 1495 1496 1497 1498 1500 1501 1502 1503 1505 1507 1508 1509 1510 1511 1512 1513 1514 1516 1517 1519 1520 1521 1523 1524 1526 1526 1527 1528 1529 1531 1532 1532 1533 1535 1536 1537 1537 1538 1539 1540 1540
1484 1485 1488 1491 1494 1496 1499 1505 1507 1510 1516 1518 1522 1528 1534 1539 1540 1543 1543 1543 1547 1542 1530 1526 1532 1535 1523 1506 1502 1502 1500 1497 1492 1490 1488 1485 1485 1485 1485 1485 1485 1487 1488 1490 1491 1492 1494 1495 1497 1498 1498 1499 1501 1502 1504 1504 1506 1507 1508 1509 1509 1511 1513 1514 1515 1516 1517 1519 1520 1521 1522 1523 1524 1526 1527 1528 1528 1530 1531 1532 1533 1534 1536 1537 1537 1538
1485 1486 1488 1488 1489 1492 1499 1504 1506 1509 1513 1517 1524 1530 1536 1543 1545 1547 1546 1546 1548 1536 1523 1523 1527 1535 1528 1505 1496 1494 1489 1489 1487 1486 1485 1483 1483 1481 1481 1482 1481 1483 1484 1486 1488 1489 1491 1492 1493 1495 1494 1495 1497 1498 1499 1500 1502 1503 1504 1505 1506 1507 1509 1510 1511 1512 1513 1515 1515 1517 1518 1519 1521 1522 1524 1524 1525 1527 1527 1528 1530 1532 1533 1534 1535 1535
1488 1484 1483 1484 1487 1489 1496 1505 1510 1512 1512 1517 1525 1530 1537 1546 1547 1547 1546 1543 1539 1530 1525 1526 1528 1531 1518 1495 1492 1492 1486 1485 1484 1483 1482 1481 1480 1479 1480 1480 1479 1480 1481 1482 1484 1485 1487 1489 1489 1490 1491 1492 1493 1494 1495 1496 1497 1499 1500 1501 1502 1503 1505 1505 1506 1507 1509 1510 1511 1512 1514 1515 1518 1519 1520 1521 1522 1524 1524 1526 1527 1528 1529 1530 1530 1531
1491 1486 1483 1485 1487 1486 1489 1499 1508 1511 1510 1512 1517 1520 1526 1535 1539 1538 1538 1535 1532 1529 1527 1526 1528 1527 1510 1491 1488 1486 1483 1481 1478 1479 1479 1478 1479 1478 1479 1480 1478 1478 1479 1479 1481 1482 1483 1485 1486 1487 1487 1488 1489 1490 1491 1492 1493 1495 1496 1497 1498 1499 1501 1502 1502 1503 1504 1506 1507 1509 1510 1512 1514 1515 1516 1518 1519 1520 1521 1522 1523 1524 1525 1525 1526 1527
1488 1484 1478 1478 1479 1479 1479 1483 1488 1494 1501 1501 1502 1506 1509 1514 1518 1521 1525 1527 1527 1529 1530 1528 1526 1517 1503 1490 1482 1480 1480 1477 1475 1476 1476 1475 1476 1476 1477 1478 1477 1477 1477 1478 1479 1479 1480 1482 1483 1484 1484 1485 1486 1486 1487 1488 1490 1491 1492 1493 1494 1496 1498 1498 1499 1499 1500 1502 1504 1505 1506 1508 1509 1511 1512 1514 1515 1516 1517 1518 1519 1519 1520 1521 1522 1523
1484 1478 1471 1468 1469 1470 1472 1475 1477 1487 1500 1501 1498 1503 1504 1502 1502 1509 1516 1516 1519 1527 1529 1526 1517 1501 1491 1484 1478 1480 1480 1478 1476 1475 1473 1473 1473 1474 1474 1474 1475 1475 1475 1476 1476 1477 1478 1479 1480 1481 1481 1482 1483 1483 1483 1484 1486 1487 1488 1490 1491 1493 1495 1495 1495 1496 1497 1498 1500 1501 1502 1503 1505 1506 1507 1509 1510 1511 1512 1513 1514 1515 1516 1517 1518 1520
1484 1478 1471 1469 1470 1469 1471 1474 1476 1482 1491 1496 1499 1500 1498 1495 1495 1504 1514 1515 1518 1522 1518 1515 1507 1495 1489 1482 1474 1477 1477 1475 1475 1472 1471 1472 1471 1472 1472 1471 1472 1472 1473 1474 1474 1474 1475 1476 1477 1477 1478 1479 1479 1479 1479 1480 1481 1482 1484 1486 1488 1490 1491 1491 1492 1493 1494 1495 1496 1497 1498 1499 1500 1501 1502 1503 1504 1506 1507 1508 1509 1510 1511 1513 1514 1515
1481 1479 1472 1470 1472 1471 1470 1472 1475 1475 1478 1485 1492 1491 1492 1498 1497 1499 1510 1517 1522 1521 1511 1506 1501 1495 1495 1484 1470 1472 1474 1471 1469 1468 1470 1471 1469 1470 1469 1468 1469 1470 1471 1471 1470 1472 1472 1473 1474 1474 1475 1475 1476 1476 1476 1477 1478 1479 1481 1483 1484 1486 1487 1488 1489 1490 1491 1492 1492 1493 1494 1495 1496 1496 1497 1498 1500 1501 1502 1504 1504 1505 1506 1508 1509 1511
1477 1479 1475 1472 1472 1472 1472 1474 1478 1479 1477 1476 1478 1478 1485 1497 1500 1498 1502 1508 1516 1515 1505 1500 1499 1495 1491 1478 1467 1469 1472 1469 1467 1467 1468 1468 1467 1467 1466 1466 1467 1467 1468 1468 1468 1469 1470 1471 1471 1471 1472 1472 1472 1473 1474 1474 1475 1476 1478 1479 1481 1482 1484 1485 1486 1487 1488 1488 1489 1489 1490 1491 1491 1492 1493 1494 1496 1497 1498 1499 1500 1501 1502 1503 1505 1506
1473 1478 1477 1473 1472 1473 1472 1474 1477 1479 1479 1477 1476 1478 1479 1484 1490 1490 1490 1494 1502 1506 1500 1496 1496 1488 1476 1467 1464 1465 1467 1467 1466 1465 1464 1463 1462 1462 1463 1464 1464 1464 1465 1465 1466 1467 1468 1469 1469 1469 1470 1470 1470 1471 1471 1472 1472 1473 1475 1476 1477 1479 1480 1481 1482 1482 1483 1484 1484 1485 1485 1486 1487 1488 1489 1490 1492 1493 1493 1495 1496 1497 1498 1499 1500 1501
1473 1478 1478 1476 1475 1473 1470 1468 1467 1469 1474 1474 1474 1477 1478 1479 1484 1485 1486 1488 1494 1500 1500 1497 1490 1473 1461 1460 1460 1459 1460 1460 1459 1458 1458 1458 1458 1459 1461 1461 1461 1462 1463 1463 1464 1465 1466 1466 1467 1467 1467 1467 1468 1468 1468 1469 1469 1470 1471 1472 1473 1475 1475 1476 1477 1478 1479 1479 1480 1480 1481 1482 1483 1484 1485 1486 1488 1488 1489 1491 1492 1493 1494 1495 1496 1497
1470 1476 1478 1478 1476 1470 1465 1462 1460 1461 1464 1465 1465 1467 1470 1475 1481 1488 1493 1490 1489 1493 1493 1494 1487 1465 1452 1455 1454 1453 1455 1454 1453 1454 1454 1456 1456 1457 1458 1458 1459 1460 1461 1462 1462 1463 1464 1464 1464 1465 1465 1465 1465 1465 1466 1466 1466 1467 1468 1469 1469 1470 1471 1472 1473 1474 1475 1476 1476 1476 1477 1478 1479 1480 1482 1483 1484 1485 1486 1487 1488 1490 1491 1491 1492 1493
1463 1472 1477 1477 1476 1471 1466 1464 1463 1462 1461 1461 1462 1463 1467 1473 1476 1484 1491 1488 1487 1489 1485 1491 1489 1462 1446 1450 1450 1450 1451 1450 1451 1452 1452 1454 1454 1455 1456 1456 1458 1458 1459 1460 1461 1461 1462 1461 1462 1462 1462 1462 1462 1462 1463 1463 1463 1464 1464 1465 1465 1466 1467 1468 1469 1470 1470 1471 1472 1473 1474 1475 1476 1477 1478 1479 1480 1481 1482 1483 1484 1486 1487 1487 1488 1489
1462 1471 1475 1476 1477 1473 1468 1465 1463 1462 1462 1464 1466 1465 1466 1470 1468 1470 1477 1479 1484 1486 1483 1493 1492 1462 1444 1447 1447 1447 1448 1448 1449 1449 1450 1452 1452 1453 1455 1455 1456 1457 1458 1459 1459 1459 1459 1459 1459 1459 1459 1459 1459 1459 1460 1459 1460 1460 1460 1461 1461 1462 1463 1465 1466 1467 1467 1468 1469 1469 1470 1471 1472 1473 1474 1475 1476 1477 1478 1479 1480 1481 1482 1482 1484 1484
1459 1468 1472 1473 1475 1475 1472 1470 1466 1465 1465 1464 1464 1464 1463 1465 1467 1469 1473 1477 1480 1477 1477 1489 1486 1459 1444 1446 1446 1446 1446 1446 1447 1447 1448 1450 1451 1452 1453 1454 1455 1456 1456 1457 1456 1457 1457 1457 1457 1457 1456 1456 1456 1456 1456 1456 1456 1457 1457 1457 1457 1458 1460 1461 1463 1464 1464 1466 1466 1467 1468 1468 1469 1470 1470 1471 1472 1473 1474 1475 1476 1477 1477 1478 1479 1480
1451 1461 1464 1463 1463 1462 1461 1459 1455 1455 1458 1458 1459 1461 1460 1461 1463 1464 1469 1476 1476 1469 1471 1479 1471 1452 1445 1446 1445 1445 1445 1445 1446 1446 1446 1447 1448 1449 1450 1452 1453 1453 1454 1454 1454 1454 1454 1454 1454 1454 1454 1454 1454 1454 1454 1454 1454 1454 1454 1455 1455 1456 1457 1458 1460 1461 1462 1463 1464 1464 1465 1465 1466 1467 1467 1468 1469 1470 1471 1471 1472 1473 1473 1474 1475 1477
1449 1456 1457 1455 1451 1446 1446 1446 1443 1444 1450 1454 1455 1456 1457 1457 1458 1460 1467 1471 1469 1467 1470 1470 1462 1452 1445 1444 1444 1444 1444 1444 1444 1444 1444 1444 1446 1447 1448 1450 1450 1451 1452 1452 1452 1452 1452 1452 1452 1452 1452 1452 1452 1452 1452 1452 1452 1452 1453 1453 1454 1455 1455 1456 1458 1458 1459 1460 1461 1462 1462 1463 1463 1464 1464 1465 1466 1467 1467 1468 1469 1469 1471 1472 1473 1474
1448 1452 1451 1453 1449 1444 1446 1446 1442 1442 1446 1447 1447 1449 1452 1455 1458 1462 1463 1459 1460 1468 1470 1462 1459 1455 1442 1436 1441 1442 1441 1442 1442 1441 1442 1442 1444 1446 1447 1448 1449 1449 1450 1449 1449 1450 1449 1450 1450 1450 1451 1450 1451 1451 1451 1451 1451 1452 1452 1452 1453 1453 1454 1455 1456 1456 1457 1458 1458 1459 1459 1460 1461 1461 1462 1462 1463 1464 1464 1465 1466 1467 1468 1470 1470 1472
1444 1446 1445 1448 1447 1444 1446 1446 1442 1441 1442 1442 1442 1445 1449 1453 1457 1458 1456 1451 1454 1462 1460 1452 1454 1452 1435 1425 1432 1438 1439 1440 1439 1439 1441 1442 1443 1444 1445 1446 1447 1447 1447 1446 1446 1447 1447 1448 1448 1448 1449 1449 1450 1450 1450 1451 1451 1451 1452 1452 1452 1452 1453 1453 1454 1454 1455 1456 1456 1457 1457 1458 1458 1459 1459 1460 1460 1461 1461 1462 1463 1464 1465 1466 1467 1469
1438 1441 1441 1445 1446 1444 1446 1445 1443 1442 1441 1441 1443 1443 1445 1449 1451 1451 1450 1450 1451 1455 1452 1447 1448 1445 1426 1417 1425 1434 1436 1437 1437 1438 1440 1440 1441 1443 1443 1444 1444 1444 1444 1443 1443 1444 1445 1446 1446 1447 1447 1448 1448 1449 1449 1450 1450 1450 1451 1451 1451 1451 1451 1452 1452 1453 1453 1454 1455 1455 1455 1456 1456 1456 1457 1457 1458 1458 1459 1459 1460 1460 1461 1462 1464 1465
1433 1435 1438 1444 1447 1444 1444 1445 1445 1443 1440 1439 1440 1440 1442 1447 1450 1451 1450 1449 1452 1453 1447 1443 1445 1438 1418 1414 1427 1433 1431 1433 1435 1436 1436 1437 1438 1440 1439 1440 1440 1440 1439 1440 1441 1442 1442 1443 1444 1444 1445 1446 1446 1447 1448 1448 1449 1449 1450 1450 1450 1450 1450 1450 1451 1451 1452 1452 1453 1453 1454 1454 1454 1454 1455 1455 1455 1455 1456 1456 1456 1457 1458 1459 1461 1462
1431 1433 1436 1443 1445 1439 1438 1443 1446 1445 1443 1440 1440 1440 1442 1444 1445 1444 1441 1438 1441 1444 1443 1445 1446 1432 1413 1414 1426 1429 1427 1430 1431 1431 1433 1434 1434 1434 1433 1434 1434 1434 1435 1436 1437 1438 1439 1440 1441 1441 1442 1443 1444 1445 1446 1446 1447 1447 1448 1448 1449 1449 1449 1449 1449 1450 1450 1450 1451 1451 1452 1452 1452 1452 1452 1452 1452 1452 1452 1453 1453 1454 1455 1456 1458 1460
1433 1434 1435 1441 1439 1429 1430 1437 1442 1447 1447 1439 1433 1429 1430 1431 1432 1433 1433 1431 1432 1435 1440 1441 1432 1414 1408 1416 1422 1422 1424 1426 1426 1427 1429 1429 1428 1429 1429 1429 1430 1430 1431 1432 1433 1435 1435 1436 1437 1438 1439 1440 1441 1442 1443 1443 1444 1445 1446 1446 1447 1447 1447 1447 1447 1448 1448 1448 1449 1449 1449 1450 1450 1450 1450 1450 1450 1450 1450 1450 1451 1451 1452 1453 1455 1457
1434 1435 1435 1437 1432 1424 1427 1435 1440 1443 1434 1417 1409 1410 1414 1419 1424 1429 1429 1426 1427 1429 1428 1424 1412 1403 1409 1417 1417 1417 1419 1420 1420 1422 1423 1423 1424 1426 1425 1425 1426 1426 1426 1428 1429 1430 1432 1432 1434 1435 1436 1437 1438 1439 1440 1440 1441 1442 1443 1444 1444 1445 1446 1445 1445 1445 1445 1445 1446 1446 1446 1447 1447 1447 1447 1447 1448 1447 1447 1448 1448 1449 1449 1450 1452 1454
1436 1436 1437 1437 1432 1426 1427 1434 1435 1427 1411 1400 1399 1404 1410 1413 1418 1423 1421 1417 1420 1421 1417 1414 1406 1401 1409 1415 1412 1413 1414 1414 1416 1417 1416 1418 1420 1421 1421 1421 1422 1422 1421 1422 1424 1426 1428 1429 1430 1432 1433 1434 1435 1436 1436 1437 1437 1439 1440 1440 1441 1442 1443 1443 1443 1443 1443 1443 1443 1443 1444 1444 1444 1444 1445 1445 1445 1445 1445 1445 1446 1446 1447 1448 1449 1451
1435 1438 1436 1435 1432 1428 1427 1427 1421 1409 1402 1403 1402 1403 1411 1417 1419 1424 1422 1412 1409 1409 1410 1411 1404 1400 1407 1408 1404 1408 1411 1412 1413 1410 1408 1413 1414 1415 1416 1416 1416 1416 1415 1416 1419 1421 1423 1425 1426 1428 1430 1431 1432 1432 1432 1433 1434 1435 1436 1437 1438 1439 1439 1440 1440 1440 1440 1440 1440 1441 1441 1441 1441 1441 1442 1442 1442 1443 1443 1443 1443 1444 1444 1445 1446 1448
1431 1436 1437 1435 1431 1426 1423 1420 1412 1407 1408 1407 1402 1399 1403 1403 1403 1410 1410 1397 1394 1403 1410 1409 1399 1395 1399 1399 1400 1408 1414 1415 1410 1398 1397 1406 1408 1409 1412 1411 1410 1411 1410 1413 1416 1417 1419 1422 1423 1425 1426 1427 1428 1428 1429 1430 1430 1431 1432 1433 1434 1435 1435 1436 1437 1437 1437 1437 1438 1438 1438 1438 1439 1439 1439 1439 1440 1440 1440 1441 1441 1441 1442 1443 1444 1445
1425 1430 1434 1436 1431 1424 1423 1419 1413 1411 1407 1400 1396 1392 1389 1387 1388 1398 1403 1394 1389 1398 1403 1398 1391 1387 1390 1395 1402 1410 1417 1418 1403 1383 1385 1400 1405 1406 1408 1406 1405 1406 1407 1409 1411 1413 1416 1418 1419 1421 1422 1422 1424 1425 1426 1427 1427 1428 1429 1429 1430 1431 1431 1432 1433 1433 1434 1434 1435 1435 1435 1435 1436 1436 1437 1437 1437 1438 1438 1438 1439 1439 1440 1441 1442 1444
1423 1426 1429 1434 1432 1427 1426 1419 1412 1409 1399 1390 1389 1388 1388 1391 1392 1404 1415 1401 1381 1383 1390 1387 1383 1380 1383 1392 1401 1408 1416 1413 1389 1369 1377 1393 1398 1400 1402 1400 1400 1403 1403 1404 1407 1409 1412 1414 1415 1417 1417 1417 1419 1421 1422 1423 1423 1424 1425 1426 1427 1427 1427 1428 1429 1429 1430 1431 1431 1432 1432 1432 1433 1434 1434 1435 1435 1436 1436 1436 1437 1437 1438 1440 1441 1443
1425 1426 1428 1433 1432 1431 1431 1423 1413 1408 1397 1389 1387 1386 1389 1392 1394 1412 1423 1393 1362 1369 1383 1380 1375 1374 1379 1391 1400 1404 1404 1392 1373 1366 1377 1386 1388 1390 1393 1393 1396 1397 1397 1399 1402 1404 1407 1409 1410 1411 1411 1413 1416 1417 1418 1419 1419 1420 1421 1421 1422 1422 1423 1424 1425 1426 1427 1427 1428 1428 1428 1429 1430 1431 1432 1432 1433 1433 1433 1434 1435 1436 1437 1439 1440 1442
1424 1424 1424 1427 1428 1429 1431 1427 1417 1406 1394 1386 1386 1386 1387 1391 1397 1408 1402 1369 1350 1364 1376 1373 1371 1373 1380 1389 1393 1390 1382 1372 1368 1372 1378 1380 1381 1383 1384 1387 1389 1390 1392 1395 1398 1400 1403 1403 1404 1405 1407 1409 1411 1412 1413 1413 1414 1415 1416 1417 1417 1418 1419 1421 1422 1423 1424 1424 1425 1426 1426 1427 1428 1428 1429 1430 1430 1431 1432 1432 1434 1435 1436 1438 1439 1441
1418 1420 1421 1423 1424 1424 1423 1422 1418 1405 1385 1377 1382 1385 1385 1389 1393 1386 1370 1356 1357 1364 1366 1367 1369 1372 1376 1381 1380 1375 1368 1365 1370 1373 1373 1375 1376 1375 1377 1381 1383 1384 1388 1391 1393 1395 1397 1398 1399 1401 1403 1405 1406 1406 1407 1408 1408 1410 1411 1411 1412 1414 1416 1418 1419 1420 1421 1422 1423 1423 1424 1425 1426 1426 1427 1428 1428 1429 1431 1431 1433 1434 1435 1437 1438 1440
1404 1410 1413 1413 1414 1416 1417 1417 1415 1399 1375 1367 1377 1383 1380 1378 1376 1368 1361 1361 1364 1363 1363 1366 1367 1368 1371 1372 1369 1366 1363 1364 1368 1368 1369 1373 1373 1371 1373 1376 1377 1380 1383 1385 1388 1390 1391 1392 1394 1396 1398 1400 1401 1401 1402 1402 1403 1404 1405 1406 1408 1411 1412 1414 1415 1416 1417 1418 1419 1420 1421 1422 1423 1424 1425 1426 1427 1428 1429 1430 1431 1432 1434 1435 1437 1438
1393 1396 1399 1399 1399 1403 1406 1405 1397 1383 1369 1365 1369 1371 1370 1367 1365 1364 1363 1364 1363 1362 1364 1365 1363 1365 1367 1365 1363 1362 1361 1362 1363 1362 1364 1368 1368 1367 1369 1371 1373 1376 1378 1380 1383 1384 1386 1388 1389 1391 1394 1395 1395 1396 1397 1397 1398 1399 1400 1402 1405 1407 1408 1409 1411 1412 1413 1414 1416 1417 1418 1419 1420 1421 1423 1424 1425 1426 1427 1427 1429 1430 1431 1433 1434 1436
1384 1381 1383 1384 1383 1383 1383 1382 1376 1370 1367 1367 1364 1362 1365 1366 1364 1363 1361 1359 1358 1359 1359 1359 1360 1362 1363 1361 1360 1358 1356 1355 1355 1356 1358 1361 1361 1362 1364 1366 1370 1372 1374 1377 1379 1380 1382 1384 1385 1387 1389 1390 1391 1392 1392 1393 1394 1395 1397 1399 1401 1402 1404 1405 1407 1408 1409 1411 1412 1413 1414 1416 1417 1418 1420 1421 1422 1422 1424 1425 1426 1427 1428 1430 1431 1433
1376 1374 1375 1375 1376 1374 1371 1370 1369 1367 1364 1360 1359 1361 1365 1365 1361 1359 1357 1354 1354 1355 1356 1356 1357 1358 1359 1359 1356 1352 1349 1349 1349 1350 1352 1354 1356 1358 1360 1362 1366 1368 1370 1373 1375 1376 1378 1380 1381 1383 1384 1385 1387 1387 1388 1389 1390 1391 1394 1396 1397 1398 1400 1401 1403 1404 1406 1407 1408 1410 1411 1413 1414 1416 1417 1418 1419 1420 1421 1422 1423 1424 1425 1426 1428 1429
1373 1373 1373 1372 1372 1371 1368 1366 1365 1362 1357 1352 1353 1359 1363 1363 1359 1357 1355 1352 1352 1353 1354 1354 1355 1356 1357 1355 1351 1346 1344 1344 1345 1346 1347 1349 1352 1353 1355 1358 1361 1364 1366 1368 1370 1372 1373 1374 1376 1377 1379 1381 1382 1383 1384 1385 1386 1388 1390 1391 1393 1395 1396 1398 1400 1402 1403 1404 1406 1407 1409 1411 1412 1414 1415 1416 1417 1418 1419 1420 1420 1421 1422 1423 1424 1425
1371 1371 1370 1368 1366 1363 1361 1359 1357 1354 1350 1349 1351 1353 1355 1356 1355 1354 1353 1352 1351 1353 1353 1353 1353 1354 1352 1349 1346 1343 1341 1341 1342 1342 1343 1345 1347 1349 1351 1354 1356 1359 1362 1364 1366 1367 1368 1370 1372 1373 1375 1377 1378 1379 1380 1381 1382 1384 1385 1386 1388 1391 1393 1395 1397 1399 1400 1402 1404 1405 1407 1409 1411 1413 1414 1415 1416 1417 1417 1418 1419 1420 1421 1422 1423 1423
1367 1365 1364 1363 1362 1358 1356 1355 1354 1353 1349 1345 1343 1342 1343 1347 1350 1351 1352 1351 1350 1350 1351 1350 1351 1350 1347 1345 1343 1340 1338 1337 1337 1338 1340 1342 1343 1345 1348 1350 1353 1355 1358 1360 1362 1364 1365 1366 1368 1370 1371 1373 1374 1375 1376 1377 1378 1380 1381 1383 1385 1387 1389 1392 1394 1396 1398 1399 1401 1403 1405 1407 1409 1411 1413 1414 1415 1416 1416 1417 1418 1419 1419 1420 1421 1422
1363 1361 1359 1359 1357 1356 1353 1350 1351 1352 1344 1334 1331 1332 1336 1342 1346 1347 1349 1348 1347 1346 1347 1346 1347 1346 1343 1340 1338 1336 1335 1334 1335 1336 1338 1339 1340 1342 1345 1347 1349 1351 1354 1356 1359 1360 1361 1363 1365 1366 1368 1369 1370 1371 1372 1373 1375 1377 1378 1380 1382 1384 1387 1389 1391 1393 1395 1396 1398 1400 1402 1405 1407 1409 1411 1412 1413 1414 1415 1415 1416 1417 1418 1419 1420 1420
1354 1352 1353 1351 1348 1346 1345 1340 1340 1343 1335 1325 1327 1332 1334 1337 1341 1344 1344 1344 1342 1342 1343 1342 1342 1341 1339 1337 1335 1334 1332 1332 1333 1334 1335 1336 1338 1340 1342 1344 1346 1348 1350 1353 1354 1355 1357 1359 1361 1362 1364 1365 1366 1368 1369 1371 1373 1374 1376 1378 1380 1382 1385 1387 1389 1391 1392 1393 1395 1397 1399 1402 1405 1407 1408 1410 1411 1412 1413 1414 1415 1415 1416 1417 1418 1418